Hourly Data Report for August 21, 2019

TORONTO CITY
ONTARIO
Current Station Operator: ECCC - MSC

43°40'00.000" N
79°24'00.000" W
112.50 m
6158355
71508
XTO

Download Data

Hourly Data (August 2019)
Hourly Data Report for August 21, 2019
TIME
LST
Temp Definition
°C
Dew Point Definition
°C
Rel Hum Definition
%
Precip. Amount Definition
mm

Wind Dir Definition
10's deg

Wind Spd Definition
km/h
Visibility Definition
km
Stn Press Definition
kPa
Hmdx Definition


Wind Chill Definition


Weather Definition


00:00 22.7 18.5 77 0.0       99.89 29   LegendNANA
01:00 24.0 19.2 74 0.0       99.90 31   LegendNANA
02:00 22.4 17.8 76 0.0       99.97 28   LegendNANA
03:00 20.8 18.1 85 0.9       99.83 27   LegendNANA
04:00 20.4 18.4 88 0.2       99.75 27   LegendNANA
05:00 21.1 18.5 85 0.0       99.83 27   LegendNANA
06:00 21.1 18.1 83 0.0       99.87 27   LegendNANA
07:00 21.3 18.4 83 0.0       99.84 28   LegendNANA
08:00 22.6 18.6 78 0.0       99.83 29   LegendNANA
09:00 23.2 18.6 75 0.0       99.80 30   LegendNANA
10:00 24.9 18.7 69 0.0       99.73 31   LegendNANA
11:00 25.4 18.9 67 0.0       99.79 32   LegendNANA
12:00 26.0 18.4 63 0.0       99.79 32   LegendNANA
13:00 27.4 17.8 56 0.0       99.74 33   LegendNANA
14:00 27.3 17.9 56 0.0       99.68 33   LegendNANA
15:00 27.6 17.8 55 0.0       99.61 33   LegendNANA
16:00 28.0 18.4 56 0.0       99.57 34   LegendNANA
17:00 29.7 16.8 46 0.0       99.56 35   LegendNANA
18:00 28.5 15.9 46 0.0       99.54 33   LegendNANA
19:00 27.9 15.7 47 0.0       99.57 32   LegendNANA
20:00 27.0 16.0 51 0.0       99.57 32   LegendNANA
21:00 26.1 16.9 57 0.0       99.59 31   LegendNANA
22:00 25.4 17.5 61 0.0       99.62 31   LegendNANA
23:00 23.2 18.4 75 0.0       99.70 30   LegendNANA

Notes on Data Quality.

Legend

  • E = Estimated
  • M = Missing
  • NA = Not Available*
  • [empty] = Indicates an unobserved value
Date modified: